CW1459 Weather Reports


time (UTC)temp
C
wind
direction
speed
KPH
gust
KPH
rain 1hr
cm
rain 24hr
cm
rain mn
cm
humidity
%
barometer
mb
20260905052339 21 156 0.0 4.8 0.00 0.03 0.00 94 1011.7
20260905051337 21 154 3.2 4.8 0.00 0.03 0.00 94 1011.8
20260905050326 21 200 0.0 1.6 0.00 0.03 0.00 94 1011.9
20260905045337 21 200 1.6 3.2 0.00 0.03 0.00 94 1011.9
20260905044400 21 200 1.6 4.8 0.00 0.03 0.00 94 1011.8
20260905043402 22 163 3.2 4.8 0.00 0.03 0.00 94 1011.6
20260905042340 22 176 1.6 4.8 0.00 0.03 0.00 94 1011.7
20260905041347 22 202 1.6 3.2 0.00 0.03 0.00 94 1011.9
20260905040324 22 157 0.0 1.6 0.00 0.03 0.00 94 1011.9
20260905035316 22 157 0.0 0.0 0.00 0.28 0.03 94 1011.9
20260905034316 22 157 0.0 4.8 0.00 0.28 0.03 94 1011.9
20260905033317 22 194 3.2 6.4 0.00 0.28 0.03 94 1011.9
20260905032320 22 205 3.2 4.8 0.00 0.28 0.03 94 1011.8
20260905031337 22 184 1.6 4.8 0.00 0.28 0.03 94 1011.9
20260905030356 22 213 1.6 4.8 0.00 0.28 0.03 94 1011.7
20260905025338 22 199 3.2 6.4 0.00 0.33 0.03 94 1011.7
20260905024316 22 155 3.2 6.4 0.00 0.33 0.03 93 1011.6
20260905023337 22 169 1.6 4.8 0.00 0.33 0.03 93 1011.4
20260905022338 22 161 3.2 4.8 0.00 0.33 0.03 93 1011.4
20260905021358 22 140 1.6 4.8 0.00 0.33 0.03 93 1011.4
20260905020316 22 132 1.6 3.2 0.00 0.33 0.03 92 1011.3
20260905015322 22 207 0.0 1.6 0.00 0.46 0.03 92 1011.2
20260905014336 22 207 0.0 1.6 0.00 0.46 0.03 92 1011.1
20260905013315 23 207 0.0 0.0 0.00 0.46 0.03 92 1011.0
20260905012319 23 207 0.0 1.6 0.00 0.46 0.03 91 1011.0
20260905011327 23 207 0.0 3.2 0.00 0.46 0.03 91 1011.1
20260905010334 23 207 0.0 3.2 0.00 0.46 0.03 90 1011.1
20260905005337 23 207 0.0 3.2 0.00 0.46 0.03 90 1011.1
20260905004315 23 207 0.0 3.2 0.00 0.46 0.03 89 1011.0
20260905003316 24 207 0.0 1.6 0.00 0.46 0.03 89 1011.0
20260905002318 24 207 1.6 3.2 0.00 0.46 0.03 88 1010.8
20260905001315 25 207 1.6 8.0 0.00 0.46 0.03 88 1010.7
20260905000340 25 222 3.2 12.9 0.00 0.46 0.03 87 1010.7
20260904235344 25 196 3.2 8.0 0.00 0.46 0.03 87 1010.8
20260904234315 25 219 3.2 8.0 0.00 0.46 0.03 86 1010.7
20260904233339 26 191 4.8 11.3 0.00 0.46 0.03 85 1010.8
20260904232341 26 192 3.2 9.7 0.00 0.46 0.03 85 1010.8
20260904231315 26 190 4.8 9.7 0.00 0.46 0.03 84 1010.8
20260904230315 27 192 3.2 6.4 0.00 0.46 0.03 85 1010.7
20260904225340 27 190 1.6 4.8 0.00 0.46 0.03 84 1010.9
20260904224314 27 281 3.2 9.7 0.00 0.46 0.03 83 1011.0
20260904223352 27 259 3.2 9.7 0.00 0.46 0.03 81 1011.2
20260904222317 27 237 3.2 6.4 0.00 0.46 0.03 80 1011.3
20260904221315 27 229 3.2 6.4 0.00 0.46 0.03 80 1011.1
20260904220326 27 264 4.8 9.7 0.00 0.46 0.03 79 1011.1
20260904215320 28 217 3.2 6.4 0.00 0.46 0.03 79 1011.0
20260904214317 28 280 1.6 8.0 0.00 0.46 0.03 77 1011.1
20260904213326 28 243 4.8 8.0 0.00 0.46 0.03 76 1011.2
20260904212315 28 223 3.2 8.0 0.00 0.46 0.03 75 1011.1
20260904211340 28 140 3.2 6.4 0.00 0.46 0.03 75 1011.2
20260904210321 28 245 1.6 6.4 0.00 0.46 0.03 73 1011.3
20260904205337 29 241 3.2 8.0 0.00 0.46 0.03 73 1011.8
20260904204320 28 285 3.2 9.7 0.00 0.46 0.03 74 1011.8
20260904203358 28 273 1.6 4.8 0.00 0.46 0.03 72 1011.7
20260904202330 28 269 1.6 3.2 0.00 0.46 0.03 72 1011.5
20260904201316 28 252 1.6 3.2 0.00 0.46 0.03 72 1011.2
20260904200317 28 289 1.6 4.8 0.00 0.46 0.03 72 1011.3
20260904195323 28 291 1.6 6.4 0.00 0.46 0.03 72 1011.2
20260904194314 28 291 1.6 4.8 0.00 0.46 0.03 71 1011.5
20260904193355 28 327 4.8 6.4 0.00 0.46 0.03 71 1011.6
20260904192351 28 315 3.2 8.0 0.00 0.46 0.03 71 1011.8
20260904191324 28 329 4.8 9.7 0.00 0.46 0.03 68 1011.9
20260904190316 29 351 8.0 12.9 0.00 0.46 0.03 68 1012.1
20260904185328 29 316 6.4 14.5 0.00 0.46 0.03 66 1012.0
20260904184320 29 327 6.4 8.0 0.00 0.46 0.03 68 1011.6
20260904183332 30 296 3.2 17.7 0.00 0.46 0.03 65 1012.2
20260904182400 30 321 8.0 19.3 0.00 0.46 0.03 66 1012.6
20260904181317 30 305 6.4 14.5 0.00 0.46 0.03 70 1012.7
20260904180349 29 290 6.4 12.9 0.00 0.46 0.03 67 1012.8
20260904175354 29 339 8.0 16.1 0.00 0.46 0.03 71 1012.8
20260904174313 29 311 4.8 9.7 0.00 0.46 0.03 69 1012.9
20260904173335 29 278 6.4 11.3 0.00 0.46 0.03 69 1012.9
20260904172321 29 252 4.8 16.1 0.00 0.46 0.03 70 1013.0
20260904171317 28 349 6.4 12.9 0.00 0.46 0.03 72 1013.1
20260904170337 28 307 6.4 14.5 0.00 0.46 0.03 71 1013.3
20260904165320 28 290 3.2 9.7 0.00 0.46 0.03 73 1013.3
20260904164318 28 333 6.4 12.9 0.00 0.46 0.03 70 1013.4
20260904163337 28 290 3.2 14.5 0.00 0.46 0.03 70 1013.6
20260904162312 28 351 3.2 12.9 0.00 0.46 0.03 72 1013.6
20260904161349 28 301 6.4 12.9 0.00 0.46 0.03 71 1013.7
20260904160332 27 327 0.0 12.9 0.00 0.46 0.03 72 1013.7
20260904155334 27 299 8.0 12.9 0.00 0.46 0.03 73 1013.8
20260904154312 27 289 4.8 6.4 0.00 0.46 0.03 74 1013.8
20260904153336 27 271 1.6 8.0 0.00 0.46 0.03 76 1013.9
20260904152335 26 227 1.6 6.4 0.00 0.46 0.03 74 1014.0
20260904151316 26 292 3.2 9.7 0.00 0.46 0.03 75 1014.1
20260904150336 26 351 1.6 6.4 0.00 0.46 0.03 80 1013.9
20260904145316 25 64 4.8 9.7 0.00 0.91 0.03 79 1013.9
20260904144331 26 323 6.4 9.7 0.00 0.91 0.03 80 1014.0
20260904143312 25 320 1.6 6.4 0.00 0.91 0.03 85 1014.1
20260904142314 25 310 1.6 11.3 0.00 0.91 0.03 83 1014.0
20260904141315 25 236 4.8 11.3 0.00 0.91 0.03 84 1014.0
20260904140313 25 225 3.2 6.4 0.00 0.91 0.03 86 1014.1
20260904135332 25 165 1.6 6.4 0.00 0.91 0.03 88 1014.1
20260904134329 24 253 3.2 6.4 0.00 0.91 0.03 88 1014.0
20260904133330 23 218 3.2 8.0 0.00 0.91 0.03 92 1014.0
20260904132314 23 256 3.2 8.0 0.00 0.91 0.03 93 1014.1
20260904131318 22 191 3.2 6.4 0.00 0.91 0.03 95 1014.0
20260904130334 22 235 3.2 4.8 0.00 0.91 0.03 96 1014.1
20260904125331 21 159 1.6 4.8 0.00 0.97 0.03 96 1013.9
20260904124337 21 181 0.0 4.8 0.00 0.97 0.03 96 1013.7
20260904123337 21 181 1.6 3.2 0.00 0.97 0.03 96 1013.8
20260904122313 21 181 1.6 1.6 0.00 0.97 0.03 97 1013.6
20260904121313 21 181 0.0 3.2 0.00 0.97 0.03 97 1013.5
20260904120337 21 181 1.6 3.2 0.00 0.97 0.03 96 1013.6
20260904115313 20 181 0.0 3.2 0.00 0.97 0.03 96 1013.6
20260904114312 20 181 1.6 3.2 0.00 0.97 0.03 97 1013.6
20260904113335 20 181 0.0 1.6 0.00 0.97 0.03 96 1013.3
20260904112317 20 181 0.0 3.2 0.00 0.97 0.03 96 1013.5
20260904111331 20 181 1.6 3.2 0.00 0.97 0.03 96 1013.2
20260904110333 20 181 1.6 1.6 0.00 0.97 0.03 96 1013.5
20260904105339 20 181 1.6 3.2 0.00 0.97 0.03 96 1013.7
20260904103332 20 181 1.6 4.8 0.00 0.97 0.03 96 1013.3
20260904102353 20 181 0.0 3.2 0.00 0.97 0.03 96 1013.0
20260904101312 20 181 1.6 3.2 0.00 0.97 0.03 96 1013.0
20260904100319 20 181 1.6 3.2 0.00 0.97 0.03 96 1013.2
20260904095332 20 181 0.0 3.2 0.00 0.97 0.03 96 1013.1
20260904094313 20 181 1.6 3.2 0.00 0.97 0.03 96 1013.1
20260904093312 20 181 0.0 1.6 0.00 0.97 0.03 96 1013.1
20260904092356 20 181 0.0 3.2 0.00 0.97 0.03 96 1013.1
20260904091316 20 181 1.6 3.2 0.00 0.97 0.03 96 1013.0
20260904090337 20 173 3.2 4.8 0.00 0.97 0.03 96 1012.9
20260904085339 20 132 0.0 4.8 0.00 0.97 0.03 96 1013.1
20260904084332 20 124 0.0 6.4 0.00 0.97 0.03 96 1013.0
20260904083340 20 30 4.8 9.7 0.00 0.97 0.03 96 1013.3
20260904082319 20 198 0.0 1.6 0.00 0.97 0.03 96 1012.5
20260904081320 20 198 0.0 1.6 0.00 0.97 0.03 95 1012.3
20260904080317 20 198 0.0 3.2 0.00 0.97 0.03 95 1012.3
20260904075339 20 198 0.0 1.6 0.03 0.97 0.03 95 1012.4
20260904074339 20 198 0.0 3.2 0.03 0.97 0.03 95 1012.4
20260904073340 20 161 4.8 8.0 0.03 0.97 0.03 95 1012.3
20260904072342 20 159 3.2 6.4 0.03 0.97 0.03 95 1012.4
20260904071317 20 206 1.6 9.7 0.03 0.97 0.03 95 1012.5
20260904070321 20 158 4.8 11.3 0.03 0.97 0.03 95 1012.6
20260904065322 20 149 4.8 6.4 0.00 0.94 0.00 95 1012.6
20260904064321 20 120 4.8 8.0 0.00 0.94 0.00 95 1012.3
20260904063333 20 174 6.4 9.7 0.00 0.94 0.00 95 1012.2
20260904062400 20 148 3.2 8.0 0.00 0.94 0.00 95 1012.1
20260904061400 20 157 3.2 8.0 0.00 0.94 0.00 95 1012.1
20260904060321 20 165 4.8 8.0 0.00 0.94 0.00 95 1012.1
20260904055359 20 190 4.8 9.7 0.00 0.94 0.00 94 1012.1
20260904054319 20 165 3.2 8.0 0.00 0.94 0.00 94 1012.2
20260904053326 20 170 1.6 6.4 0.00 0.94 0.00 94 1012.5